Weather in Godunovo

Russia / Vladimir Oblast     56°29′02″N   39°02′10″E
temp.,
°C
wind,
m/s
gust,
m/s
humid.,
%
clouds,
%
prec.,
mm/h
press.,
hPa
HPBL,
m
3 march, wed
wed300:00−2nnw6128690 0.4 1009787
03:00−7nw6139059 0.4 1012400
06:00−7nw6149282 0.0 1013476
09:00−6nw6139068 0.0 1014664
12:00−3wnw6109098 0.1 1012771
15:00−1wnw7108999 0.3 10121031
18:00−2w5129298 0.2 1009646
21:00−2w6129399 0.4 1008863
4 march, thu
thu400:00−3wsw51393100 0.1 1005621
03:000wsw61391100 0.4 1002722
06:000w81497100 1.1 999866
09:00−1wnw51188100 3.1 1000938
12:00−2nw5878100 0.0 1000871
15:00−2nw4682100 0.0 1000734
18:00−5nnw3592100 0.0 1000106
21:00−7n2394100 0.0 100162
5 march, fri
fri500:00−9nne2495100 0.0 100282
03:00−11n2394100 0.0 100444
06:00−13n23967 0.0 100524
09:00−11nnw23944 0.0 1007100
12:00−6nw238662 0.0 1008428
15:00−5wnw238181 0.1 1009726
18:00−8w128899 0.1 101021
21:00−8wnw249698 0.3 101190
6 march, sat
sat600:00−11nw339630 0.0 101349
03:00−13nnw369642 0.0 1014126
06:00−16nnw368911 0.0 1015112
09:00−14nw35876 0.0 1016164
12:00−9wnw35710 0.0 1016536
15:00−7w35740 0.0 1015946
18:00−11sw348528 0.0 101339
21:00−12sw369529 0.0 1012101
7 march, sun
sun700:00−12ssw5109435 0.0 1010235
03:00−10ssw7148867 0.0 1005617
06:00−8ssw81592100 0.4 1000891
09:00−6sw91592100 1.1 9951018
12:00−3sw101694100 1.3 9901130
15:00−1sw91595100 3.0 9881121
18:00−7w61274100 2.9 9901032
21:00−9sw6149262 2.9 990589